EW8555 Weather Reports


time (UTC)temp
C
wind
direction
speed
KPH
gust
KPH
rain 1hr
cm
rain 24hr
cm
rain mn
cm
humidity
%
barometer
mb
20260502151521 26 284 6.4 16.1 0.00 0.00 0.00 26 1015.6
20260502130104 25 213 9.7 24.1 0.00 0.00 0.00 26 1017.7
20260502123101 25 257 8.0 29.0 0.00 0.00 0.00 29 1018.0
20260502121603 25 229 9.7 17.7 0.00 0.00 0.00 28 1018.2
20260502114644 23 203 12.9 27.4 0.00 0.00 0.00 31 1018.8
20260502113043 23 202 16.1 29.0 0.00 0.00 0.00 31 1019.0
20260502111542 23 244 16.1 29.0 0.00 0.00 0.00 31 1019.1
20260502110042 23 204 9.7 20.9 0.00 0.00 0.00 32 1019.3
20260502104542 23 210 8.0 24.1 0.00 0.00 0.00 33 1019.4
20260502103045 23 206 12.9 25.7 0.00 0.00 0.00 33 1019.6
20260502101548 23 217 8.0 24.1 0.00 0.00 0.00 34 1019.8
20260502091521 22 209 9.7 25.7 0.00 0.00 0.00 36 1020.4
20260502070058 18 204 9.7 20.9 0.00 0.00 0.00 46 1021.3
20260502064559 17 224 4.8 12.9 0.00 0.00 0.00 50 1021.2
20260502063054 16 220 3.2 12.9 0.00 0.00 0.00 54 1021.3
20260502061546 15 199 6.4 12.9 0.00 0.00 0.00 56 1021.4
20260502060041 14 200 8.0 14.5 0.00 0.00 0.00 60 1021.4
20260502054536 13 219 1.6 8.0 0.00 0.00 0.00 65 1021.6
20260502053032 12 214 0.0 0.0 0.00 0.00 0.00 69 1021.6
20260502051528 11 214 0.0 0.0 0.00 0.00 0.00 72 1021.7
20260502050027 10 214 0.0 0.0 0.00 0.00 0.00 73 1021.6
20260502044525 9 214 0.0 0.0 0.00 0.00 0.00 78 1021.6
20260502043025 8 214 0.0 0.0 0.00 0.00 0.00 80 1021.7
20260502041534 7 214 0.0 3.2 0.00 0.00 0.00 81 1021.7
20260502040026 7 214 0.0 3.2 0.00 0.00 0.00 81 1021.7
20260502034530 7 214 1.6 3.2 0.00 0.00 0.00 81 1021.7
20260502033022 7 214 0.0 3.2 0.00 0.00 0.00 79 1021.8
20260502031521 7 214 1.6 3.2 0.00 0.00 0.00 80 1021.8
20260502030020 7 214 1.6 4.8 0.00 0.00 0.00 80 1021.9
20260502024519 8 213 4.8 6.4 0.00 0.00 0.00 80 1021.9
20260502023019 7 222 1.6 4.8 0.00 0.00 0.00 81 1022.0
20260502021517 7 222 1.6 4.8 0.00 0.00 0.00 82 1022.0
20260502020020 7 222 0.0 3.2 0.00 0.00 0.00 81 1022.1
20260502014513 7 222 0.0 0.0 0.00 0.00 0.00 80 1022.1
20260502013011 7 222 0.0 3.2 0.00 0.00 0.00 80 1022.2
20260502011528 7 222 0.0 0.0 0.00 0.00 0.00 78 1022.4
20260502010005 8 222 0.0 0.0 0.00 0.00 0.00 78 1022.5
20260502004503 8 222 0.0 0.0 0.00 0.00 0.00 77 1022.6
20260502003100 8 222 0.0 0.0 0.00 0.00 0.00 76 1022.6
20260502001557 9 222 0.0 0.0 0.00 0.00 0.00 73 1022.7
20260502000111 10 221 0.0 3.2 0.00 0.00 0.00 73 1022.7
20260501234552 10 221 1.6 4.8 0.00 0.00 0.00 74 1022.8
20260501233051 10 221 0.0 0.0 0.00 0.00 0.00 74 1023.0
20260501231557 10 221 0.0 0.0 0.00 0.00 0.00 73 1023.0
20260501230051 10 221 0.0 0.0 0.00 0.00 0.00 72 1023.0
20260501224552 10 221 0.0 0.0 0.00 0.00 0.00 71 1023.1
20260501223044 10 222 0.0 0.0 0.00 0.00 0.00 70 1023.2
20260501221559 10 222 0.0 0.0 0.00 0.00 0.00 70 1023.2
20260501220044 11 221 0.0 0.0 0.00 0.00 0.00 68 1023.2
20260501214539 11 221 0.0 0.0 0.00 0.00 0.00 66 1023.2
20260501213040 12 221 0.0 0.0 0.00 0.00 0.00 63 1023.2
20260501211537 13 221 0.0 0.0 0.00 0.00 0.00 59 1023.2
20260501210037 13 221 1.6 6.4 0.00 0.00 0.00 58 1023.3
20260501204510 14 250 0.0 0.0 0.00 0.00 0.00 59 1023.3
20260501203010 14 250 0.0 0.0 0.00 0.00 0.00 58 1023.3
20260501201509 15 250 0.0 0.0 0.00 0.00 0.00 55 1023.4
20260501200008 15 250 0.0 0.0 0.00 0.00 0.00 52 1023.4
20260501194510 16 250 0.0 0.0 0.00 0.00 0.00 50 1023.5
20260501193019 17 250 0.0 0.0 0.00 0.00 0.00 47 1023.4
20260501191507 18 250 0.0 0.0 0.00 0.00 0.00 44 1023.4
20260501190022 19 9 0.0 0.0 0.00 0.00 0.00 42 1023.4
20260501184505 20 9 0.0 0.0 0.00 0.00 0.00 39 1023.4
20260501183011 20 9 0.0 0.0 0.00 0.00 0.00 35 1023.4
20260501181505 21 9 0.0 0.0 0.00 0.00 0.00 34 1023.4
20260501180005 21 9 0.0 0.0 0.00 0.00 0.00 33 1023.3
20260501174513 21 9 1.6 8.0 0.00 0.00 0.00 32 1023.3
20260501173004 22 10 1.6 6.4 0.00 0.00 0.00 31 1023.2
20260501171503 22 13 3.2 6.4 0.00 0.00 0.00 31 1023.4
20260501170001 22 62 1.6 8.0 0.00 0.00 0.00 30 1023.4
20260501164604 22 58 4.8 8.0 0.00 0.00 0.00 30 1023.5
20260501163059 22 330 1.6 9.7 0.00 0.00 0.00 30 1023.7
20260501161608 22 71 1.6 11.3 0.00 0.00 0.00 30 1023.8
20260501160112 22 79 3.2 9.7 0.00 0.00 0.00 31 1023.9
20260501154627 23 322 4.8 8.0 0.00 0.00 0.00 29 1024.0